カタログに戻る

CP4

運用中科学SSO
NORAD 31132·PAYLOAD·🇺🇸 United States

打ち上げ Apr 17, 2007 から Baikonur Cosmodrome

Loading…

次のパス (今後24時間)

TLE

最新Source: Space-Track

元期: Sep 14, 2026, 10:20 UTC

1 31132U 07012Q   26257.43110356  .00000922  00000-0  16865-3 0  9997
2 31132  98.4463 244.9052 0072041  45.1560 315.5466 14.66783768 33436

AllMySatでCP4をリアルタイム追跡

Download on the App Store